[[{"header":{"parameterUnit":"m.s-1","parameterCategory":1,"la1":30.2991,"la2":30.254,"lo1":-89.0895,"lo2":-89.0444,"dy":0.0017,"dx":0.0017,"nx":28,"ny":28,"refTime":"2024-12-18T03:00:00:Z","depth":0,"parameterNumber":2,"parameterNumberName":"U-component_of_WINDS"},"data":[0,0,0,0,0,0,0,0,0,0,0,0,0,0,0,0,0,0,0,0,0,0,0,0,0,0,0,0,0,0,0,0,0,0,0,0,0,0,0,0,0,0,0,0,0,0,0,0,0,0,0,0,0,0,0,0,0,0,1.1795,1.1794,0,1.1734,1.1733,1.1733,1.1681,1.168,1.168,1.1679,1.1614,1.1613,1.1612,0,0,0,0,0,0,0,0,0,0,0,0,0,1.1864,1.1863,1.1795,1.1794,1.1793,1.1734,1.1733,1.1732,1.1681,1.168,1.1679,1.1679,1.1615,1.1613,1.1612,0,0,0,0,0,0,0,0,0,0,0,0,0,1.1822,1.1863,1.1795,1.176,1.1757,1.1734,1.1733,1.1732,1.1681,1.168,1.1679,1.1678,1.1615,1.1613,1.1612,1.1618,0,0,1.1606,1.1605,0,0,0,0,0,0,0,0,1.1824,1.1819,1.1766,1.1763,1.1758,1.1714,1.1734,1.1694,1.1681,1.171,1.1679,1.1678,1.1648,1.1643,1.1634,1.1615,1.1612,1.1606,1.1605,1.1604,1.1604,0,0,0,0,0,0,0,1.1827,1.1822,1.177,1.1765,1.1761,1.1747,1.174,1.1726,1.1684,1.1707,1.1703,1.1697,1.1646,1.1636,1.1632,1.1611,1.1606,1.1604,1.1603,1.1603,1.1595,1.1596,0,0,0,0,0,0,1.1836,1.1824,1.1772,1.1769,1.179,1.1747,1.1739,1.1729,1.1684,1.1677,1.1698,1.1695,1.1639,1.1634,1.1629,1.1634,1.1604,1.1602,1.1601,1.1594,1.1595,1.1596,0,0,0,0,0,0,1.1838,1.1832,1.1775,1.1796,1.1787,1.1747,1.1736,1.1728,1.1718,1.1677,1.1669,1.1695,1.1638,1.1632,1.1621,1.1631,1.1602,1.16,1.1593,1.1594,1.1596,1.1644,0,0,0,0,0,0,1.184,1.1833,1.1835,1.1796,1.1786,1.1768,1.1736,1.1728,1.1716,1.1711,1.1673,1.1666,1.1637,1.1624,1.162,1.1628,1.1599,1.1592,1.1594,1.1595,1.1641,1.1647,1.1651,0,0,0,0,0,1.1842,1.185,1.1835,1.1829,1.1788,1.1769,1.1763,1.1731,1.1717,1.1718,1.1692,1.1667,1.1631,1.1624,1.1618,1.1626,1.1591,1.1593,1.1595,1.1639,1.1646,1.1651,0,0,0,0,0,0,1.1889,1.1844,1.1827,1.1822,1.18,1.176,1.1761,1.1739,1.172,1.1716,1.1677,1.1669,1.1663,1.1643,1.1636,1.1631,1.1608,1.1609,1.1643,1.1649,1.1654,1.1659,1.1597,0,0,0,0,0,1.1899,1.1888,1.1849,1.1848,1.1838,1.1802,1.1792,1.177,1.1745,1.1735,1.1708,1.1684,1.1668,1.1657,1.164,1.1639,1.163,1.1641,1.1647,1.1651,1.1652,1.1651,1.1656,1.1603,1.1603,1.1603,0,0,1.1919,1.1893,1.1888,1.1857,1.1837,1.1826,1.1794,1.1784,1.1775,1.1733,1.1722,1.1701,1.1672,1.1667,1.1663,1.165,1.1665,1.1654,1.1657,1.1656,1.1654,1.1659,1.1663,1.1604,1.1604,1.1603,0,0,1.1949,1.1929,1.1927,1.1908,1.1879,1.1855,1.1855,1.1819,1.1804,1.1793,1.1762,1.1751,1.1723,1.1704,1.1691,1.1717,1.1693,1.1712,1.1738,1.1738,1.1742,1.1746,1.1755,1.1759,1.1714,1.1714,1.1714,0,1.1977,1.196,1.1928,1.192,1.1907,1.1871,1.1868,1.1851,1.1818,1.181,1.1797,1.1763,1.174,1.1731,1.1737,1.1728,1.1726,1.1716,1.1744,1.1748,1.175,1.1759,1.1763,1.1716,1.1716,1.1716,1.1715,0,1.1997,1.1985,1.1987,1.1958,1.1945,1.194,1.1907,1.1898,1.1878,1.1855,1.1845,1.1817,1.1794,1.179,1.1769,1.1778,1.1771,1.1752,1.1728,1.1759,1.1766,1.1769,1.172,1.1719,1.1718,1.1718,0,0,1.2053,1.2007,1.2008,1.1995,1.1962,1.1952,1.1946,1.1925,1.1918,1.1897,1.1891,1.1869,1.1852,1.1837,1.1814,1.1813,1.1837,1.1794,1.1793,1.1803,1.1846,1.1861,1.1865,1.1822,1.1822,1.1822,1.1848,0,1.2078,1.2065,1.2037,1.2033,1.2023,1.1989,1.1983,1.1962,1.1942,1.193,1.1907,1.1892,1.187,1.1861,1.1859,1.1835,1.1845,1.1832,1.1815,1.1815,1.1823,1.1869,1.1884,1.191,1.1851,1.1852,1.1852,0,1.2105,1.2088,1.2083,1.2052,1.2047,1.2042,1.2022,1.2011,1.1986,1.1972,1.1956,1.1931,1.1923,1.1902,1.189,1.1882,1.1874,1.1861,1.1861,1.1857,1.1835,1.1867,1.1917,1.1921,1.1856,1.1856,1.1856,0,1.2147,1.2123,1.2117,1.2107,1.207,1.2068,1.2053,1.2028,1.2017,1.1999,1.1992,1.1973,1.1962,1.1948,1.1918,1.1906,1.191,1.1886,1.1897,1.1898,1.1899,1.1899,1.1948,1.1894,1.1894,1.1894,1.1894,0,1.2178,1.2177,1.2136,1.2132,1.213,1.2098,1.2096,1.2078,1.2056,1.2048,1.2018,1.2011,1.1973,1.1962,1.1938,1.1933,1.1928,1.1915,1.1909,1.1918,1.192,1.1911,1.1909,1.1895,1.1894,1.1894,1.1894,0,1.2224,1.2197,1.2189,1.2156,1.2147,1.2147,1.2119,1.2114,1.2093,1.2084,1.2079,1.2046,1.2031,1.2001,1.1978,1.1962,1.1962,1.1951,1.197,1.1967,1.1979,1.1979,1.2025,1.2029,1.1972,1.1973,1.1973,0,1.2245,1.2244,1.2212,1.2205,1.2191,1.218,1.217,1.2139,1.213,1.2103,1.2102,1.2086,1.2071,1.2049,1.2022,1.2005,1.1993,1.2011,1.199,1.2,1.1994,1.1994,1.1994,1.2015,1.2016,1.2016,1.2017,0,1.2286,1.2274,1.2261,1.2244,1.2233,1.2218,1.2201,1.2197,1.2162,1.2153,1.2139,1.2127,1.2105,1.2089,1.2068,1.2051,1.2029,1.2024,1.2026,1.2034,1.2046,1.204,1.1983,1.2023,1.2022,1.2022,1.2021,1.2021,1.2321,1.2318,1.2296,1.2283,1.2267,1.2253,1.2248,1.2227,1.2215,1.2195,1.2177,1.2165,1.2142,1.2111,1.2097,1.2086,1.2075,1.2077,1.2077,1.2079,1.2083,1.2048,1.2082,1.2082,1.2082,1.2082,1.2082,0,1.236,1.2345,1.2333,1.2312,1.2302,1.2283,1.2264,1.2257,1.2247,1.2228,1.2214,1.2199,1.2184,1.2157,1.214,1.2137,1.2126,1.2133,1.2133,1.213,1.2094,1.2094,1.2142,1.2142,1.2142,1.2142,1.2142,1.2142,1.238,1.2375,1.236,1.2348,1.2332,1.2321,1.2311,1.2298,1.2283,1.2267,1.2255,1.2239,1.2216,1.2198,1.2183,1.2176,1.2171,1.2182,1.2171,1.2138,1.2132,1.2126,1.2127,1.2181,1.2181,1.2208,1.2208,1.2208]},{"header":{"parameterUnit":"m.s-1","parameterCategory":1,"la1":30.2991,"la2":30.254,"lo1":-89.0895,"lo2":-89.0444,"dy":0.0017,"dx":0.0017,"nx":28,"ny":28,"refTime":"2024-12-18T03:00:00:Z","depth":0,"parameterNumber":3,"parameterNumberName":"V-component_of_WINDS"},"data":[0,0,0,0,0,0,0,0,0,0,0,0,0,0,0,0,0,0,0,0,0,0,0,0,0,0,0,0,0,0,0,0,0,0,0,0,0,0,0,0,0,0,0,0,0,0,0,0,0,0,0,0,0,0,0,0,0,0,-5.9667,-5.9668,0,-5.9818,-5.982,-5.9822,-5.9799,-5.9797,-5.9794,-5.9792,-5.9942,-5.9948,-5.9954,0,0,0,0,0,0,0,0,0,0,0,0,0,-5.9353,-5.9359,-5.9667,-5.9669,-5.967,-5.9818,-5.982,-5.9822,-5.98,-5.9797,-5.9794,-5.9791,-5.994,-5.9947,-5.9955,0,0,0,0,0,0,0,0,0,0,0,0,0,-5.9496,-5.9361,-5.9666,-5.9677,-5.968,-5.9818,-5.982,-5.9823,-5.9801,-5.9797,-5.9793,-5.9789,-5.9937,-5.9947,-5.9956,-6.0091,0,0,-5.9985,-5.9989,0,0,0,0,0,0,0,0,-5.9488,-5.9507,-5.9674,-5.9677,-5.968,-5.9786,-5.9765,-5.9913,-5.9801,-5.9755,-5.9792,-5.9787,-5.9893,-5.9906,-5.9943,-6.0098,-6.0105,-5.9986,-5.9992,-5.9996,-5.9999,0,0,0,0,0,0,0,-5.9478,-5.95,-5.9726,-5.9676,-5.968,-5.9673,-5.9689,-5.9793,-5.9843,-5.9758,-5.9757,-5.9776,-5.9894,-5.9933,-5.9946,-6.0107,-5.9986,-5.9994,-6.0,-6.0004,-6.0382,-6.0386,0,0,0,0,0,0,-5.9466,-5.9492,-5.9722,-5.9731,-5.9573,-5.9682,-5.97,-5.9756,-5.9842,-5.9851,-5.9779,-5.9774,-5.9919,-5.9935,-5.9951,-6.0116,-5.9996,-6.0005,-6.001,-6.0378,-6.0383,-6.0388,0,0,0,0,0,0,-5.9459,-5.9486,-5.9716,-5.9612,-5.964,-5.9691,-5.9754,-5.9761,-5.98,-5.9857,-5.9866,-5.981,-5.9917,-5.9938,-6.0057,-6.0121,-6.0009,-6.0018,-6.0373,-6.038,-6.0385,-6.0447,0,0,0,0,0,0,-5.945,-5.9484,-5.9537,-5.9613,-5.9646,-5.9821,-5.9758,-5.9767,-5.9818,-5.9813,-5.9889,-5.9898,-5.9915,-6.0043,-6.0067,-6.0132,-6.0025,-6.0367,-6.0376,-6.0383,-6.0439,-6.0455,-6.0468,0,0,0,0,0,-5.9439,-5.9547,-5.954,-5.9567,-5.9713,-5.9825,-5.9843,-5.9862,-5.9823,-5.9876,-5.9913,-5.9896,-6.011,-6.0056,-6.0082,-6.0151,-6.0363,-6.0373,-6.0383,-6.0433,-6.0452,-6.0468,0,0,0,0,0,0,-5.9475,-5.9557,-5.955,-5.9686,-5.9749,-5.9821,-5.9888,-5.9881,-5.9955,-5.9947,-5.9966,-5.9983,-6.0105,-6.0139,-6.0077,-6.0287,-6.0231,-6.0246,-6.026,-6.0278,-6.0292,-6.0282,-6.0033,0,0,0,0,0,-5.9499,-5.9584,-5.965,-5.9764,-5.9796,-5.9837,-5.9886,-5.9895,-5.996,-5.9986,-6.0031,-6.0094,-6.0175,-6.0228,-6.0306,-6.0444,-6.046,-6.0504,-6.0519,-6.053,-6.0543,-6.062,-6.064,-6.042,-6.042,-6.0419,0,0,-5.9549,-5.9604,-5.9656,-5.9772,-5.9822,-5.9909,-5.9859,-5.9952,-6.0017,-6.0,-6.0117,-6.0152,-6.0222,-6.0352,-6.0411,-6.0385,-6.0608,-6.0542,-6.0551,-6.0558,-6.0632,-6.0653,-6.0671,-6.0426,-6.0425,-6.0424,0,0,-5.9685,-5.9735,-5.9836,-5.9887,-5.9964,-5.9991,-6.0015,-6.0088,-6.0112,-6.023,-6.0219,-6.0295,-6.0434,-6.0486,-6.053,-6.0687,-6.0674,-6.0711,-6.0785,-6.086,-6.0877,-6.0892,-6.0949,-6.0969,-6.0724,-6.0724,-6.0724,0,-5.9737,-5.9868,-5.9888,-5.9984,-6.0035,-6.0025,-6.0127,-6.0176,-6.0273,-6.0308,-6.0277,-6.0454,-6.05,-6.0643,-6.0681,-6.0717,-6.0745,-6.0703,-6.0873,-6.0889,-6.0904,-6.0958,-6.0979,-6.0728,-6.0728,-6.0727,-6.0727,0,-5.9929,-6.0021,-6.0092,-6.019,-6.0249,-6.0347,-6.038,-6.0438,-6.0442,-6.0471,-6.0592,-6.0647,-6.0737,-6.0771,-6.0775,-6.0914,-6.0896,-6.0869,-6.0813,-6.0929,-6.098,-6.1001,-6.0734,-6.0733,-6.0731,-6.073,0,0,-6.0092,-6.02,-6.0226,-6.0271,-6.0355,-6.0425,-6.0522,-6.0612,-6.0662,-6.0729,-6.0811,-6.093,-6.0906,-6.0957,-6.0966,-6.1031,-6.1153,-6.0996,-6.0998,-6.1024,-6.131,-6.1331,-6.1355,-6.1144,-6.1148,-6.1152,-6.1305,0,-6.0237,-6.0412,-6.0432,-6.0587,-6.0672,-6.0664,-6.0749,-6.0809,-6.084,-6.0915,-6.0947,-6.1032,-6.0994,-6.1024,-6.1088,-6.1124,-6.1211,-6.1113,-6.122,-6.1224,-6.1205,-6.1382,-6.1404,-6.1546,-6.1325,-6.1328,-6.1331,0,-6.0429,-6.0505,-6.0669,-6.0743,-6.078,-6.0856,-6.0941,-6.1013,-6.1081,-6.1098,-6.1155,-6.1157,-6.1256,-6.1196,-6.1333,-6.1267,-6.1311,-6.1336,-6.1341,-6.1353,-6.1285,-6.1399,-6.1591,-6.1613,-6.1362,-6.136,-6.1358,0,-6.0534,-6.0676,-6.0793,-6.0831,-6.092,-6.0974,-6.1013,-6.1077,-6.113,-6.1203,-6.1238,-6.1321,-6.1366,-6.143,-6.1453,-6.1407,-6.159,-6.1531,-6.1607,-6.1606,-6.1646,-6.1644,-6.185,-6.1673,-6.1673,-6.1672,-6.1672,0,-6.0694,-6.0795,-6.0842,-6.0914,-6.1026,-6.1048,-6.1159,-6.1195,-6.1253,-6.1331,-6.1328,-6.1401,-6.1427,-6.1504,-6.1522,-6.1634,-6.1653,-6.167,-6.1674,-6.1671,-6.1669,-6.1702,-6.1693,-6.1678,-6.1677,-6.1675,-6.1675,0,-6.083,-6.0865,-6.0992,-6.1067,-6.1088,-6.1168,-6.1231,-6.13,-6.1329,-6.1428,-6.1452,-6.1498,-6.1589,-6.1618,-6.1727,-6.1739,-6.1869,-6.1864,-6.1848,-6.1848,-6.1923,-6.1916,-6.2158,-6.2191,-6.1991,-6.1993,-6.1995,0,-6.0931,-6.1009,-6.1092,-6.1146,-6.1188,-6.1273,-6.1328,-6.1352,-6.1409,-6.1493,-6.1552,-6.1642,-6.1716,-6.1861,-6.1903,-6.1986,-6.1983,-6.2062,-6.1995,-6.1991,-6.1986,-6.1981,-6.199,-6.2075,-6.2077,-6.2078,-6.208,0,-6.1106,-6.112,-6.1201,-6.1288,-6.1354,-6.1423,-6.1489,-6.1533,-6.1566,-6.163,-6.1725,-6.1782,-6.1894,-6.1984,-6.2069,-6.2107,-6.21,-6.21,-6.2123,-6.2121,-6.2109,-6.2118,-6.1883,-6.2095,-6.2093,-6.2092,-6.2091,-6.2091,-6.1229,-6.1298,-6.1369,-6.1458,-6.1512,-6.1574,-6.1644,-6.1682,-6.1762,-6.1857,-6.1866,-6.1967,-6.2033,-6.2147,-6.2189,-6.2268,-6.2245,-6.2277,-6.2285,-6.2293,-6.23,-6.2096,-6.2283,-6.2283,-6.2282,-6.2282,-6.2282,0,-6.1406,-6.1451,-6.1533,-6.1628,-6.1699,-6.1687,-6.176,-6.1819,-6.191,-6.1972,-6.2046,-6.2154,-6.2241,-6.229,-6.2377,-6.2431,-6.2429,-6.2453,-6.2449,-6.2459,-6.2314,-6.2287,-6.2452,-6.2452,-6.2452,-6.2452,-6.2452,-6.2452,-6.1506,-6.1624,-6.1646,-6.179,-6.1833,-6.1935,-6.1978,-6.2035,-6.2086,-6.2208,-6.2281,-6.2313,-6.2371,-6.2462,-6.2541,-6.2553,-6.2585,-6.2612,-6.2621,-6.2486,-6.2469,-6.2452,-6.2427,-6.2618,-6.2619,-6.2759,-6.2761,-6.2762]}]]